Temperature
25 25 26 27 27 27 28 27 27 28 29 27 26 25 25 24 24 23 22 20 19 17 17 16 16 16 16 16 16 16 16 16 16 16 16 16 16 16 16 16 16 16 16 16
26 26 27 28 28 28 27 27 27 27 28 27 25 25 24 24 23 22 21 20 18 17 16 16 15 15 15 15 15 15 15 15 15 15 15 15 15 15 15 15 15 15 15 15
26 27 28 28 27 27 27 27 27 27 27 26 25 24 23 22 22 21 20 19 18 17 15 15 14 14 14 14 14 14 14 14 15 15 15 15 15 15 14 14 14 15 15 15
27 28 28 27 27 27 26 27 27 26 25 25 25 23 22 21 21 21 20 19 17 16 15 14 14 13 13 13 13 13 14 14 14 14 14 14 14 14 13 13 13 14 14 14
27 28 27 27 27 27 27 28 27 26 25 24 24 23 22 21 20 20 19 18 17 15 15 14 13 13 12 12 12 13 13 13 13 13 13 13 13 13 13 13 13 13 13 13
27 28 28 27 28 28 27 27 26 26 25 23 23 22 21 20 20 19 18 17 16 15 14 13 13 12 12 12 12 12 12 12 12 12 12 12 12 12 12 12 12 12 12 12
26 27 28 28 27 27 27 25 23 22 22 21 23 22 20 20 20 19 17 16 15 14 13 12 12 11 11 11 11 11 11 11 11 11 11 11 11 11 11 11 11 11 11 11
25 25 26 27 27 26 26 25 22 21 21 21 21 20 19 20 19 18 17 15 14 14 13 12 11 11 10 10 10 10 10 10 10 11 10 11 11 11 10 10 10 10 10 10
25 24 27 27 27 27 26 25 25 23 22 21 20 19 18 18 18 17 16 14 14 13 12 11 10 10 10 10 10 10 10 10 10 10 10 10 10 10 10 10 10 10 10 9
26 24 26 27 27 27 27 26 25 23 21 20 20 19 18 17 16 16 15 14 13 12 11 10 10 9 9 9 9 9 9 9 9 9 9 9 9 9 9 9 9 9 9 9
26 25 25 26 26 26 26 25 25 23 23 21 20 19 19 18 17 16 15 14 12 12 11 10 9 9 9 9 8 8 8 8 8 8 8 8 8 8 8 8 8 8 8 8
26 25 24 24 26 27 26 26 25 23 22 22 21 18 20 19 17 16 14 13 12 11 10 10 9 9 8 8 8 8 8 8 7 7 7 7 7 7 7 7 7 7 7 7
25 23 22 22 22 24 25 25 25 24 23 21 20 18 19 18 17 15 13 12 11 10 10 9 9 8 8 8 8 7 7 7 7 7 7 7 7 7 6 6 6 6 6 6
25 23 21 20 20 22 23 25 25 24 23 22 21 18 18 17 16 14 13 11 10 10 9 8 8 8 8 7 7 7 7 7 7 6 6 6 6 6 6 6 6 6 6 6
24 22 22 23 23 24 24 25 25 24 23 22 21 19 18 17 15 14 12 11 10 9 8 8 8 7 7 7 7 6 6 6 6 6 6 6 6 5 5 5 5 5 5 5
24 23 23 23 25 25 25 25 24 24 24 22 21 19 18 16 14 13 12 11 10 9 8 8 8 7 7 7 6 6 6 6 6 6 6 5 5 5 5 5 5 5 5 5
24 23 22 22 24 24 23 24 24 23 23 22 20 18 17 16 14 12 11 10 9 9 8 8 7 7 7 6 6 6 6 6 6 5 5 5 5 5 5 5 5 5 5 5
23 22 22 22 22 21 22 24 24 23 22 21 20 18 17 15 13 12 11 10 9 9 8 8 7 7 7 6 6 6 6 6 6 5 5 5 5 5 5 5 5 5 5 5
24 22 22 22 21 21 22 23 23 22 21 21 19 17 15 13 12 11 10 10 9 8 8 7 7 7 6 6 6 6 6 6 6 6 5 5 5 5 5 5 5 5 5 5
24 23 22 21 21 20 20 22 23 22 19 19 18 16 15 14 13 11 9 9 8 8 7 7 7 6 6 6 6 6 6 6 6 6 5 5 5 5 5 5 5 5 5 5
22 22 22 21 21 20 21 22 22 20 18 18 17 16 14 14 13 10 9 8 8 7 7 7 6 6 6 6 6 6 6 6 6 6 6 5 5 5 5 5 5 5 5 5
22 22 22 22 21 19 21 22 20 18 18 17 16 14 12 11 10 9 8 8 7 7 7 7 6 6 6 6 6 6 6 6 6 6 6 6 5 5 5 5 5 5 5 5
23 22 22 21 20 19 19 18 18 17 16 15 14 12 11 10 9 8 8 7 7 7 6 6 6 6 6 6 6 6 6 6 6 6 6 6 6 6 6 6 6 6 6 6
23 24 22 21 20 19 18 17 17 16 15 14 13 12 11 10 9 8 7 7 7 7 6 6 6 6 6 6 6 6 6 6 6 6 6 6 6 6 6 6 6 6 6 6
22 23 22 21 19 19 18 17 16 15 14 13 12 11 10 9 8 8 7 7 7 7 6 6 6 6 6 6 6 6 6 6 6 6 6 6 6 6 6 6 6 6 6 6
23 23 22 21 20 19 17 16 15 14 13 12 12 11 10 9 8 8 7 7 7 7 6 6 6 6 6 6 6 6 6 6 6 6 6 6 6 6 6 6 6 6 6 6
Wind_Speed
13 13 13 11 11 11 10 10 9 7 5 6 6 7 6 5 5 5 6 7 8 8 8 10 10 10 10 9 8 8 6 4 2 1 1 1 1 2 2 3 5 3 2 2
13 15 13 9 8 10 12 11 9 5 3 5 5 7 6 5 6 5 6 8 9 9 9 9 10 10 11 10 9 8 6 5 3 1 1 2 2 3 3 4 5 5 4 3
14 10 8 7 9 10 11 10 9 7 5 6 7 8 7 6 6 6 6 9 10 10 9 9 10 10 11 11 10 8 8 7 5 4 3 3 3 3 3 4 4 6 7 6
12 9 5 8 10 9 10 9 8 8 9 8 9 9 9 10 8 8 8 9 9 9 10 10 10 11 11 11 10 10 9 8 7 6 5 5 4 3 3 3 4 5 7 8
10 8 7 9 9 7 9 9 9 10 11 11 9 9 6 11 11 9 9 10 11 10 10 10 11 11 11 11 10 10 9 9 8 8 7 6 5 4 4 4 6 6 7 9
12 8 8 8 8 7 9 10 9 9 9 12 10 9 7 8 10 11 11 11 12 11 11 11 11 11 11 11 10 10 10 10 9 9 8 7 6 6 6 6 6 6 6 6
12 10 7 7 8 8 9 8 6 6 6 10 8 6 2 5 10 15 14 13 11 11 11 10 11 11 11 11 10 10 10 9 9 9 8 7 7 6 6 6 6 6 6 6
9 8 7 7 8 7 7 8 7 7 7 7 4 2 4 7 12 15 15 14 12 11 11 11 11 10 10 10 10 9 9 9 9 9 8 8 8 6 6 7 6 6 6 6
5 5 7 7 7 8 8 8 6 8 10 8 2 1 4 10 14 14 14 13 12 11 11 11 10 10 10 10 10 9 9 9 9 9 9 9 8 8 8 8 7 7 6 6
6 5 6 6 7 9 8 7 5 5 5 6 3 3 3 7 10 11 11 12 12 11 11 10 9 9 9 9 9 9 10 9 9 9 9 8 9 9 8 8 9 8 7 7
6 6 6 5 6 7 6 6 5 5 5 7 5 1 4 9 12 13 11 12 11 11 10 9 9 8 9 9 9 9 9 9 9 9 9 10 9 9 9 8 8 8 7 7
3 5 6 7 5 7 7 6 5 5 7 7 5 2 5 8 11 13 13 12 11 11 10 10 9 9 8 8 8 8 8 9 9 9 10 10 9 9 9 8 8 8 8 7
2 2 5 5 5 6 4 5 5 5 6 6 5 2 7 10 12 12 14 13 11 10 10 9 8 8 8 8 8 9 9 9 8 9 10 10 9 9 9 8 7 7 7 7
2 3 5 5 6 7 7 5 3 5 5 5 3 4 7 9 12 12 13 12 11 10 9 9 8 7 8 8 8 9 9 8 9 9 10 10 9 8 8 7 7 7 7 7
2 6 8 9 9 8 8 6 4 5 6 6 3 3 8 9 11 12 12 12 12 10 10 9 8 8 8 8 8 9 9 9 8 9 9 9 8 7 7 7 7 7 6 7
2 5 8 8 8 7 6 5 4 5 5 4 3 7 10 12 12 11 11 12 11 11 10 9 9 10 9 8 9 9 9 8 8 8 8 8 7 7 6 6 6 6 6 5
4 5 7 8 8 6 5 3 3 4 5 5 4 7 11 11 11 10 11 11 11 11 10 10 10 10 9 9 9 8 8 7 7 7 7 6 6 6 5 6 5 5 4 4
3 5 5 7 6 6 1 4 4 4 5 6 8 10 10 12 11 9 9 10 11 11 11 10 10 10 9 9 9 8 7 6 6 6 6 6 5 6 6 5 5 4 4 4
3 5 5 5 5 2 3 3 4 3 4 7 10 12 13 14 12 8 8 9 10 11 10 9 10 10 9 8 8 7 6 6 6 6 6 6 5 6 5 5 4 4 4 4
5 5 6 6 6 2 3 4 3 2 4 8 10 11 12 10 6 6 9 11 11 11 10 10 10 10 9 7 7 6 6 5 6 6 6 5 4 4 5 4 4 3 3 3
7 6 8 7 5 2 3 2 2 2 5 7 8 9 9 5 6 12 13 13 12 12 11 11 10 9 8 7 6 5 6 5 5 5 5 5 4 4 5 4 3 2 3 4
5 4 4 4 3 2 5 3 4 7 8 9 10 12 13 15 16 15 14 14 13 12 12 11 10 9 7 6 6 6 6 5 5 5 5 5 3 3 5 3 3 2 2 3
1 2 2 4 5 8 10 10 10 10 11 11 13 15 16 16 16 15 14 13 13 12 11 10 10 9 7 5 5 7 6 5 5 4 5 4 4 4 3 2 2 2 1 2
3 3 5 7 10 10 11 11 11 12 13 14 15 16 16 17 16 15 13 12 12 11 11 10 10 9 8 6 6 6 6 5 4 5 4 3 4 4 3 2 3 4 5 4
2 2 4 8 11 11 10 11 13 14 15 16 16 16 16 17 16 15 13 12 11 11 10 9 9 8 8 7 6 6 5 5 4 4 3 3 4 4 4 6 6 7 6 6
1 2 1 5 11 9 12 13 15 15 16 16 17 16 16 16 16 15 13 12 11 11 10 9 8 8 8 7 7 6 5 5 4 3 3 3 3 4 4 5 6 9 7 7
Wind_Direction
220 229 238 232 231 259 280 274 264 257 183 196 206 191 179 167 168 159 137 120 106 94 81 70 63 62 60 61 60 60 57 47 61 98 139 113 107 88 65 58 59 61 60 18
229 233 242 246 249 257 268 270 268 255 218 220 210 208 186 176 169 147 132 118 111 104 86 73 68 65 59 56 55 56 52 46 52 67 119 134 124 83 74 61 55 50 56 49
235 238 226 246 249 255 264 262 266 266 248 226 224 230 193 185 171 146 135 120 112 108 96 77 67 64 59 53 48 49 45 43 42 39 60 74 79 74 65 58 58 45 49 52
240 243 228 241 251 258 269 271 272 269 259 252 236 246 213 184 176 163 148 125 115 104 96 86 74 64 60 56 55 52 52 47 44 47 54 68 82 81 65 64 64 55 51 51
243 236 234 247 259 262 273 281 269 264 261 264 254 255 235 173 175 170 146 125 112 101 93 86 79 72 65 61 59 56 55 52 49 53 55 63 72 74 78 77 73 64 54 49
260 249 240 248 261 263 271 272 269 266 263 261 257 253 231 183 177 156 138 125 112 104 94 85 78 72 67 62 60 57 56 54 49 51 55 60 71 73 81 76 67 65 61 53
245 243 233 233 250 252 252 263 273 272 260 259 281 258 151 144 149 144 137 127 116 107 98 88 78 70 62 58 57 56 56 56 53 51 50 52 63 68 68 69 71 69 66 59
241 232 225 226 243 256 251 256 261 280 279 280 297 289 115 99 113 126 128 124 115 106 97 86 77 72 67 60 58 57 56 56 54 54 55 56 58 64 68 70 74 74 70 65
275 243 221 216 240 256 260 265 264 270 281 287 273 99 94 98 113 121 124 121 116 107 99 91 82 75 70 64 58 58 59 57 54 56 60 63 62 63 67 71 71 72 70 74
277 276 242 218 232 237 257 282 295 284 289 290 265 194 176 150 134 128 131 128 119 111 103 96 87 80 73 71 68 64 64 61 58 56 56 65 66 67 69 73 71 71 71 71
264 274 259 235 237 255 245 264 281 299 299 296 297 52 137 167 155 145 141 130 124 118 110 101 93 86 79 75 73 72 70 69 66 66 65 64 65 66 70 71 72 71 68 66
248 284 287 278 279 286 277 281 288 291 296 306 312 80 94 134 138 143 137 127 122 116 109 103 97 91 85 80 78 76 74 73 74 76 75 71 68 67 68 69 69 71 69 66
311 298 288 297 320 297 280 289 301 302 302 304 306 112 104 116 119 128 129 129 126 121 111 103 97 91 90 90 88 86 80 79 77 79 80 74 69 66 66 66 67 68 71 71
311 267 262 259 257 273 279 277 292 299 305 315 359 123 137 126 127 126 131 134 132 127 119 112 104 98 100 98 95 91 86 82 81 81 80 75 71 70 68 66 66 63 60 64
259 266 267 256 243 249 270 298 318 319 322 327 4 137 147 138 134 132 134 135 135 132 125 119 115 110 106 102 97 94 91 83 80 82 82 79 76 72 70 67 64 61 59 63
216 280 285 281 270 269 280 294 304 316 335 358 65 94 113 119 122 128 135 139 140 138 133 129 126 122 119 115 108 101 96 91 87 85 84 84 84 77 74 76 73 67 65 63
221 260 286 288 293 289 286 308 333 352 17 20 49 112 126 127 129 137 143 146 146 143 139 137 132 129 126 120 115 111 108 104 97 95 94 93 93 87 81 82 79 75 77 78
260 280 282 279 292 281 89 52 49 45 54 74 99 119 122 122 119 118 133 141 143 143 141 137 133 129 123 123 121 117 115 117 114 108 102 95 88 83 82 85 80 75 72 74
218 257 277 280 277 266 90 61 48 44 67 89 108 111 114 119 116 107 118 124 132 134 133 130 129 128 129 130 129 126 126 121 116 110 103 97 88 85 86 84 79 82 85 82
201 232 255 274 291 326 99 79 62 69 99 92 113 127 136 150 154 137 128 121 120 123 127 129 128 127 129 129 131 131 122 112 108 105 102 100 99 96 94 88 84 87 93 91
202 224 243 260 279 79 74 47 299 323 107 109 120 131 139 137 104 127 128 123 122 124 128 128 128 128 127 127 130 129 120 113 109 107 106 103 97 97 97 88 88 95 93 90
207 229 245 265 279 82 24 22 53 101 111 110 111 113 111 108 113 121 123 124 125 126 128 129 126 124 124 129 133 123 114 116 114 110 108 104 98 89 93 92 91 96 98 107
169 63 59 53 84 85 69 85 98 110 112 113 115 117 119 120 124 125 126 126 128 129 129 129 128 127 128 132 131 124 119 114 110 104 100 102 100 91 100 106 104 111 115 101
140 110 121 114 114 107 100 102 103 107 113 115 119 123 125 125 126 126 127 128 130 130 131 133 133 132 132 135 129 126 129 127 121 112 107 108 111 107 90 67 65 57 43 44
111 165 129 117 124 120 114 112 112 111 113 116 119 123 126 128 129 130 131 133 133 133 134 134 134 134 133 134 133 135 134 132 122 120 120 112 102 98 87 72 52 64 60 56
126 117 139 134 145 139 129 125 123 123 123 124 124 123 127 130 131 131 132 134 135 135 136 137 140 141 138 138 139 140 141 138 136 137 137 133 130 127 123 115 95 62 80 83
Height
1473 1473 1470 1463 1460 1460 1458 1460 1460 1456 1452 1460 1467 1472 1474 1478 1481 1484 1487 1491 1494 1497 1499 1499 1500 1500 1501 1502 1502 1504 1506 1507 1509 1510 1511 1513 1515 1516 1519 1520 1521 1522 1524 1525
1468 1468 1459 1455 1455 1457 1459 1461 1460 1456 1453 1460 1468 1472 1473 1478 1481 1485 1488 1492 1495 1498 1500 1501 1502 1502 1502 1503 1503 1505 1506 1507 1509 1509 1510 1512 1513 1514 1515 1517 1519 1520 1521 1522
1464 1457 1453 1455 1457 1459 1459 1460 1460 1460 1457 1459 1468 1475 1476 1479 1482 1486 1490 1492 1496 1499 1501 1502 1503 1504 1504 1503 1504 1505 1505 1506 1508 1509 1510 1512 1513 1513 1515 1515 1516 1518 1519 1520
1455 1451 1453 1456 1457 1457 1462 1454 1455 1458 1464 1468 1468 1481 1478 1478 1483 1488 1492 1494 1498 1501 1502 1503 1504 1505 1505 1505 1505 1506 1506 1506 1507 1507 1509 1510 1511 1512 1513 1514 1515 1516 1517 1518
1453 1450 1453 1457 1455 1454 1456 1452 1454 1457 1462 1468 1469 1477 1478 1476 1485 1488 1492 1496 1499 1502 1504 1505 1506 1507 1507 1507 1507 1507 1507 1507 1508 1508 1509 1510 1510 1512 1513 1514 1515 1515 1516 1516
1450 1448 1449 1451 1450 1451 1452 1453 1455 1457 1463 1477 1473 1478 1483 1478 1479 1486 1492 1497 1500 1503 1505 1506 1508 1509 1509 1509 1508 1508 1508 1508 1508 1508 1509 1510 1511 1512 1513 1513 1514 1514 1515 1516
1455 1449 1447 1449 1453 1451 1453 1463 1476 1481 1484 1483 1469 1474 1482 1474 1475 1482 1491 1498 1502 1504 1506 1507 1509 1510 1510 1510 1510 1510 1509 1509 1509 1509 1510 1511 1511 1512 1512 1513 1514 1515 1515 1516
1461 1461 1450 1448 1451 1454 1454 1461 1480 1492 1489 1479 1473 1480 1483 1477 1479 1485 1493 1498 1502 1505 1507 1509 1510 1511 1511 1512 1512 1511 1511 1511 1510 1510 1511 1511 1512 1512 1513 1513 1514 1515 1516 1516
1457 1459 1446 1445 1447 1449 1455 1456 1457 1471 1474 1481 1481 1484 1485 1483 1486 1490 1496 1500 1503 1506 1508 1510 1511 1512 1513 1513 1513 1512 1512 1512 1512 1512 1512 1512 1512 1513 1513 1514 1515 1515 1516 1517
1448 1458 1448 1444 1446 1446 1448 1451 1459 1468 1484 1487 1482 1487 1489 1489 1490 1493 1497 1501 1505 1507 1509 1511 1513 1513 1514 1514 1514 1514 1513 1513 1513 1513 1514 1514 1514 1514 1514 1515 1516 1516 1517 1518
1445 1456 1452 1447 1450 1450 1450 1452 1455 1462 1467 1478 1486 1491 1480 1483 1487 1492 1498 1502 1506 1509 1511 1512 1514 1514 1515 1515 1515 1515 1515 1515 1516 1515 1515 1515 1515 1516 1516 1516 1517 1518 1519 1519
1446 1453 1459 1454 1445 1444 1445 1449 1453 1468 1470 1467 1476 1492 1478 1481 1486 1492 1498 1503 1507 1510 1512 1513 1515 1516 1516 1516 1517 1517 1517 1517 1517 1517 1517 1517 1517 1517 1518 1518 1519 1520 1521 1521
1449 1459 1471 1469 1465 1454 1451 1449 1450 1455 1461 1470 1479 1491 1481 1484 1490 1495 1500 1504 1508 1511 1513 1514 1516 1517 1517 1518 1519 1519 1519 1519 1520 1520 1520 1520 1520 1520 1520 1521 1522 1522 1523 1523
1451 1460 1471 1481 1477 1464 1458 1451 1450 1455 1464 1468 1472 1483 1485 1487 1492 1497 1502 1505 1509 1511 1513 1515 1517 1518 1519 1520 1521 1521 1521 1522 1522 1522 1522 1522 1523 1523 1524 1524 1525 1525 1525 1526
1454 1461 1460 1458 1455 1454 1452 1449 1450 1454 1458 1465 1470 1476 1483 1487 1492 1498 1502 1506 1509 1512 1514 1516 1518 1519 1521 1522 1522 1523 1524 1524 1525 1525 1525 1526 1526 1527 1527 1527 1528 1528 1528 1529
1454 1459 1457 1456 1449 1448 1449 1448 1450 1453 1455 1461 1467 1478 1483 1489 1494 1499 1503 1506 1510 1513 1515 1517 1519 1520 1522 1523 1525 1526 1527 1528 1528 1528 1529 1529 1530 1530 1530 1531 1531 1531 1531 1532
1452 1458 1462 1462 1451 1451 1459 1451 1452 1454 1456 1462 1471 1480 1485 1490 1496 1500 1504 1507 1510 1513 1515 1518 1520 1521 1524 1525 1526 1528 1529 1530 1531 1532 1532 1533 1533 1533 1534 1534 1534 1535 1535 1535
1454 1458 1460 1462 1461 1473 1461 1450 1453 1457 1461 1465 1472 1479 1485 1492 1498 1502 1504 1507 1510 1513 1516 1519 1521 1523 1525 1527 1529 1530 1532 1533 1534 1535 1536 1536 1536 1537 1537 1537 1537 1538 1538 1538
1451 1457 1460 1463 1466 1465 1461 1456 1457 1462 1467 1469 1475 1482 1489 1495 1500 1504 1506 1508 1511 1514 1517 1519 1522 1524 1526 1529 1531 1532 1534 1535 1537 1538 1539 1539 1539 1539 1540 1540 1540 1540 1541 1541
1449 1453 1460 1462 1468 1474 1470 1460 1460 1464 1474 1476 1479 1485 1490 1494 1497 1505 1508 1510 1512 1515 1518 1521 1523 1526 1528 1531 1533 1534 1536 1538 1539 1540 1541 1542 1542 1542 1542 1542 1543 1543 1543 1544
1454 1456 1459 1461 1465 1467 1463 1460 1461 1472 1481 1480 1482 1486 1490 1493 1497 1504 1508 1511 1514 1517 1520 1523 1525 1528 1531 1533 1535 1537 1538 1540 1541 1542 1543 1544 1544 1545 1545 1545 1545 1545 1546 1546
1451 1454 1456 1457 1466 1475 1464 1461 1468 1477 1478 1481 1485 1489 1493 1497 1500 1505 1509 1513 1516 1519 1522 1525 1528 1530 1533 1535 1537 1539 1540 1542 1543 1544 1545 1546 1547 1547 1547 1547 1548 1548 1548 1549
1446 1450 1452 1459 1469 1469 1469 1471 1475 1477 1480 1484 1488 1492 1496 1500 1504 1508 1512 1516 1519 1522 1525 1527 1530 1533 1535 1537 1539 1540 1542 1544 1545 1546 1547 1548 1549 1549 1550 1550 1550 1550 1551 1551
1446 1447 1451 1459 1466 1470 1473 1475 1478 1481 1484 1488 1491 1495 1499 1502 1507 1511 1515 1518 1521 1524 1527 1530 1532 1535 1537 1539 1541 1543 1544 1546 1547 1548 1549 1550 1551 1551 1552 1552 1553 1553 1553 1553
1447 1449 1451 1460 1467 1471 1476 1478 1481 1484 1487 1491 1495 1498 1502 1505 1509 1513 1517 1520 1523 1526 1529 1532 1535 1537 1539 1541 1543 1545 1546 1548 1549 1550 1551 1552 1552 1553 1553 1554 1554 1554 1554 1554
1447 1449 1452 1457 1464 1469 1476 1480 1484 1487 1491 1494 1498 1502 1506 1508 1512 1516 1519 1523 1526 1529 1532 1534 1537 1539 1541 1543 1545 1547 1548 1550 1551 1552 1553 1553 1554 1555 1555 1555 1555 1555 1556 1556